Simultaneous Nadir Overpasses (SNOs) Predictions

Prediction of SNOs between GOES-16 and METOP-B Satellite Orbit:

Table of predicted SNOs for the next 14.0 days since TLE Epoch: 7/17/2020
Index Date Time (GOES-16) GOES-16 Lat,Lon METOP-B Lat,Lon Distance(km) Time Diff (sec)
1 07/18/2020 02:16:14 0.02, -75.19 0.72, -71.93 371.06 80
2 07/19/2020 14:37:46 -0.02, -75.21 0.30, -76.49 146.75 80
3 07/20/2020 14:14:26 -0.02, -75.22 -0.84, -71.50 422.74 80
4 07/22/2020 02:36:06 0.03, -75.21 -0.18, -76.10 101.57 80
5 07/23/2020 02:12:46 0.03, -75.22 0.95, -71.11 468.18 80
6 07/24/2020 14:34:17 -0.04, -75.24 0.07, -75.67 48.70 80
7 07/27/2020 02:29:57 0.04, -75.26 0.05, -75.27 1.75 80
8 07/29/2020 14:28:09 -0.04, -75.30 -0.16, -74.84 53.22 80
9 07/31/2020 02:49:48 0.03, -75.31 -0.86, -79.44 469.25 80
